Date,TemperatureHighF,TemperatureAvgF,TemperatureLowF,DewpointHighF,DewpointAvgF,DewpointLowF,HumidityHigh,HumidityAvg,HumidityLow,PressureMaxIn,PressureMinIn,WindSpeedMaxMPH,WindSpeedAvgMPH,GustSpeedMaxMPH,PrecipitationSumIn
2013-2-1,48.7,36.0,20.5,30.2,16.7,4.6,87,52,20,30.25,29.88,6,1,0,0.00
2013-2-2,47.7,31.7,17.2,36.3,23.7,12.7,98,77,27,30.26,29.94,5,1,0,0.15
2013-2-3,55.6,40.2,27.9,41.9,32.2,25.9,98,76,42,29.94,29.78,5,1,0,0.01
2013-2-4,53.1,35.9,23.9,35.3,28.2,22.2,96,76,44,30.04,29.90,3,0,0,0.00
2013-2-5,62.6,43.6,27.1,48.1,37.6,25.9,98,81,55,29.91,29.81,5,1,0,0.00
2013-2-6,69.1,45.3,28.6,45.0,32.2,24.3,98,69,20,30.08,29.91,5,0,0,0.00
2013-2-7,49.3,44.6,36.7,43.4,37.3,30.1,98,78,52,30.11,29.87,10,3,0,0.57
2013-2-8,62.4,46.5,30.4,53.1,41.7,28.6,98,85,53,30.01,29.79,6,1,0,0.00
2013-2-9,63.1,42.3,25.2,38.8,29.9,23.7,96,68,23,30.21,30.00,5,1,0,0.00
2013-2-10,59.0,45.2,30.6,47.2,37.8,28.3,98,78,43,30.30,30.06,9,2,0,0.74
2013-2-11,57.6,51.1,46.6,57.0,50.6,46.1,98,98,98,30.05,29.89,3,0,0,0.23
2013-2-12,61.2,48.6,39.2,46.9,42.1,32.1,98,82,37,30.00,29.78,6,1,0,0.17
2013-2-13,52.9,44.3,31.1,49.7,42.9,30.1,98,95,83,29.79,29.56,5,1,0,0.08
2013-2-14,54.5,37.4,24.6,39.4,32.3,23.1,98,84,54,29.95,29.77,6,1,0,0.00
2013-2-15,65.5,43.3,24.6,45.2,34.2,23.1,98,75,38,30.00,29.83,7,1,0,0.00
2013-2-16,46.9,36.2,24.4,36.4,29.8,15.7,96,78,55,29.94,29.74,9,1,0,0.06
2013-2-17,48.0,32.4,20.7,21.2,14.5,9.3,85,51,22,30.14,29.94,5,1,0,0.03
2013-2-18,57.9,36.3,19.0,32.5,24.2,16.0,94,66,32,30.26,30.10,6,1,0,0.00
2013-2-19,52.7,39.6,27.0,47.2,35.5,24.2,98,86,57,30.09,29.80,5,1,0,0.26
2013-2-20,59.0,38.3,19.8,35.4,23.8,13.1,95,63,20,30.03,29.93,5,1,0,0.00
2013-2-21,60.6,42.8,23.5,41.2,26.6,19.1,94,60,22,30.12,29.95,5,1,0,0.05
2013-2-22,43.2,40.2,38.3,40.7,39.5,37.8,98,97,89,30.15,29.99,5,2,0,0.54
2013-2-23,46.8,42.6,39.0,46.3,42.1,38.5,98,98,98,29.99,29.72,4,1,0,0.52
2013-2-24,67.5,50.1,34.7,49.9,42.5,32.9,98,79,39,29.88,29.75,5,1,0,0.01
2013-2-25,50.2,41.7,32.4,34.9,32.1,29.5,98,71,53,30.04,29.87,12,4,0,0.01
2013-2-26,44.6,38.8,34.2,44.1,38.3,33.4,98,98,93,29.89,29.47,10,3,0,0.78
2013-2-27,58.1,46.7,34.2,45.3,38.8,33.4,98,76,54,29.71,29.58,6,2,0,0.00
2013-2-28,54.7,41.7,26.2,38.0,30.5,23.4,90,66,44,29.80,29.64,5,1,0,0.00